STARLINK-3231, 49744

Orbit data source: Space-Track

STARLINK-3231, 49744 is a payload satellite owned by SpaceX/Seattle (US) in LEO that was launched on Thu, 02 Dec 2021 UTC via an FALCON 9 launch vehicle from the Air Force Eastern Test Range (AFETR). Payload-class satellites include a variety of spacecraft equipped with specific instruments for various scientific and technological missions. These include communications satellites like Starlink; space stations such as the ISS; scientific satellites like the Hubble; Earth observation satellites from companies like Planet Labs, Umbra, and HawkEye 360; GPS; miniature CubeSats for education and research; and military/defense satellites.

Loading next visibility...
Identifier
49744, 2021-115W
Orbit
LEO
Country
Flag of USUS
Related business
Manufacturer
SpaceX/Seattle
Mission
Operational Commercial Communications
Bus & Motor
STARLINK, Unknown motor
Mass
290 kg wet, ~270 kg dry
Launch date (UTC)
2021-12-02 (5 years ago)
Launch vehicle
FALCON 9
Launch site
Air Force Eastern Test Range (AFETR)
Object type
Payload
Rocket body
Debris
Shape & HBR
Box + 1 Pan, 10.1 m
Radar Cross Section
13.562 m², Large (>1 m²)

Expand to show TLE details & history
Last TLE update: 3 days ago

TLE from 3 days ago
0 STARLINK-3231
1 49744U 21115W   26170.70327214  .00024000  00000-0  15046-2 0  9994
2 49744  53.1614  50.9414 0001248 157.3446 202.7601 15.09234675250937
Epoch: 2026-06-19T16:52Z
TLE epoch observation values (Epoch: 2026-06-19T16:52:42.712Z)
Latitude
-0.00004°
Longitude
-110.16504°
Altitude
540.225 km
Speed
7.593 km/s
True Right ascension
03h 23m 45s
True Declination
0° 00' 00"
Sunlit
Object was in daylight at epoch
Visualization orbit readout
Latitude
Unknown
Longitude
Unknown
Altitude
Unknown
Speed
Unknown
Apparent Right ascension
Unknown
Apparent Declination
Unknown
Sunlit
N/A
Visualization observer readout
Local Sidereal Time
00:33:08
Azimuth
Unknown
Elevation
Unknown
Doppler factor
Unknown
Orbital elements
Apogee altitude
539.654 km
Perigee altitude
537.928 km
Semi-major axis
6,916.928 km
Eccentricity
0.00012
Inclination
53.1614°
RAAN
50.9414°
Arg. of periapsis
157.3446°
True anomaly
202.75457°
Mean anomaly
202.7601°
Eccentric anomaly
202.75733°
Mean motion
3.77288 °/min
Orbital period
95.42 mins
BSTAR
0.0015046
Loading maneuver chart data...
Computing Atmospheric mass density...
Loading historical data...
Loading historical data...
Loading historical data...
Loading historical data...
Loading historical data...
Loading historical data...
Loading historical data...

Documentation

Showing up to 5 results
|